Regional Weather Roundup
Issued by NWS

Home | Current Version | Previous Version | Text Only | Print | Product List | Glossary On
Versions: 1 2 3 4 5 6 7 8 9 10 11 12 13 14 15 16 17 18 19 20 21 22 23 24 25 26 27 28 29 30 31 32 33 34 35 36 37 38 39 40 41 42 43 44 45 46 47 48 49 50
000
ASUS42 KTBW 292310
RWRFL
FLORIDA REGIONAL WEATHER ROUNDUP
NATIONAL WEATHER SERVICE TAMPA BAY RUSKIN FL
700 PM EDT TUE JUL 29 2014

NOTE: "FAIR" INDICATES FEW OR NO CLOUDS BELOW 12,000 FEET WITH NO
SIGNIFICANT WEATHER AND/OR OBSTRUCTIONS TO VISIBILITY.


FLZ001>010-012>015-112-114-115-300000-
PANHANDLE FLORIDA

CITY           SKY/WX    TMP DP  RH WIND       PRES   REMARKS
PENSACOLA      MOSUNNY   86  61  42 N9        29.96F
PENSACOLA NAS  MOSUNNY   88  62  41 N12       29.96F
MILTON NAS     MOSUNNY   86  63  45 N10       29.97S
CRESTVIEW      MOSUNNY   86  61  42 N5        29.98S
DUKE FIELD     MOSUNNY   87  67  52 N8        29.97S
VALPARAISO     MOSUNNY   89  62  40 NW8       29.96S
MARY ESTHER    MOSUNNY   87  56  35 N10       29.95S
TRI COUNTY     FAIR      86  61  42 NW7       29.96F
PANAMA CITY    FAIR      88  63  43 NW10G25   29.94F
TYNDALL AFB    SUNNY     86  72  62 W15       29.94F
APALACHICOLA   MOSUNNY   83  68  60 NW9       29.92S

STATION/POSITION SKY/WX   TEMP    WIND        PRES    WAVE   SWELL
                          AIR SEA DIR/SP/G            HT/PER HT/PER
                          (F)     (DEG/KT/KT) (MB)    (FT/S) (FT/S)
30.1N   87.6W              85 85  330/ 10/ 14 1014.8F   1/ 3
29.2N   88.2W              83 87  340/ 12/ 14 1015.7S
28.8N   86.0W              83 85  340/ 10/ 12 1014.0F   3/ 5   2/ 5
PANAMA CITY BEAC           83 81  280/ 11/ 14 1013.9F
CAPE SAN BLAS    NOT AVBL
TOWER C                    83     310/ 16/ 17 1013.0F
28.5N   84.5W              84 85  310/ 12/ 14 1013.2F   4/ 6   2/ 6

$$
FLZ011-016>038-118-127-128-134-139-239-300000-
NORTH FLORIDA

CITY           SKY/WX    TMP DP  RH WIND       PRES   REMARKS
MARIANNA       MOSUNNY   86  64  47 N7        29.95S
TALLAHASSEE    PTSUNNY   89  64  42 NW10G16   29.93F
PERRY          MOSUNNY   86  61  42 NW7       29.92S
CROSS CITY       N/A     89  69  51 W8        29.90F
GAINESVILLE    SUNNY     90  67  46 NW8       29.90S
MAYPORT NAS    MOSUNNY   87  74  64 SE10      29.88S HX  95
JACKSONVILLE   MOSUNNY   91  60  35 NW8       29.88S
JAX NAS        MOSUNNY   95  62  33 W7        29.89S HX  96
JAX CRAIG      MOSUNNY   92  63  38 NW6       29.88S
JAX CECIL      MOSUNNY   90  64  43 W12       29.89R
FERNANDINA BEA FAIR      88  70  55 SE7       29.87S
ST AUGUSTINE   MOSUNNY   88  76  67 SE10      29.89S HX  99

STATION/POSITION SKY/WX   TEMP    WIND        PRES    WAVE   SWELL
                          AIR SEA DIR/SP/G            HT/PER HT/PER
                          (F)     (DEG/KT/KT) (MB)    (FT/S) (FT/S)
SHELL POINT                89     340/  9/ 13   N/A
KEATON BEACH               86     270/ 10/ 12 1013.1F
CEDAR KEY                  85     300/  9/ 13 1013.6F
FERNANDINA                 91 87  310/  7/  9 1011.5R
30.7N   81.3W                 86                N/A     1/ 8
MAYPORT                    86 87  130/  7/ 10   N/A
31.4N   80.9W              84 86   80/  6/  8 1012.2S   2/ 4   2/ 4
ST AUGUSTINE               84     160/  8/  9 1012.9R

$$
FLZ040-043>046-052-053-057-058-063-144-300000-
INTERIOR CENTRAL FLORIDA

CITY           SKY/WX    TMP DP  RH WIND       PRES   REMARKS
OCALA          MOSUNNY   90  68  48 W10       29.92S
LEESBURG       MOSUNNY   85  77  77 E17G24    29.95R HX  95
SANFORD        LGT RAIN  79  74  84 SW9       29.93F
ORLANDO EXEC   CLOUDY    78  74  87 NW10      29.95R
ORLANDO INTL   TSTM      77  74  90 W9        29.95F
KISSIMMEE      PTSUNNY   77  75  94 W5        29.95F
WINTER HAVEN   CLOUDY    79  74  84 CALM      29.96F
LAKELAND       PTSUNNY   79  75  89 W6        29.97S
BARTOW         FAIR      75  75 100 CALM      29.97F THUNDER
OKEECHOBEE     RAIN      73  72  94 MISG      29.97S

$$
FLZ041-047-054-059-064-141-147-300000-
EAST CENTRAL FLORIDA

CITY           SKY/WX    TMP DP  RH WIND       PRES   REMARKS
ORMOND BEACH   MOSUNNY   82  73  74 SW10      29.91S
DAYTONA BEACH  PTSUNNY   80  73  79 W12       29.93R
DELAND         CLOUDY    77  73  88 MISG      29.95R
NEW SMYRNA BEA MOSUNNY   81  73  78 SW8       29.92S
JFK SPACE CTR  CLOUDY    78  78 100 W9        29.93S
TITUSVILLE     PTSUNNY   79  73  83 W12       29.94S
CAPE CANAVERAL DRIZZLE   80  76  86 NW7       29.93S
PATRICK AFB    TSTM      77  72  83 W23G40    29.96R VSB 1/4
MELBOURNE      CLOUDY    80  72  76 SW9       29.94S THUNDER
VERO BEACH     CLOUDY    77  72  84 SW9       29.95F
FT PIERCE      LGT RAIN  77  70  79 CALM      29.96F
STUART         PTSUNNY   81  72  74 W6        29.99R

STATION/POSITION SKY/WX   TEMP    WIND        PRES    WAVE   SWELL
                          AIR SEA DIR/SP/G            HT/PER HT/PER
                          (F)     (DEG/KT/KT) (MB)    (FT/S) (FT/S)
28.5N   80.2W              82 83  200/ 14/ 16 1013.6S
28.9N   78.5W              83 84  230/ 14/ 17 1013.2R   4/ 5   2/ 8
TRIDENT PIER               81 85  350/  4/  6 1012.9F
28.4N   80.5W                 83                N/A     2/ 9
27.6N   80.2W                 82                N/A     1/ 2

$$
FLZ050-056-061-142-242-148-248-149-249-151-251-155-255-
160-260-300000-
WEST CENTRAL FLORIDA

CITY           SKY/WX    TMP DP  RH WIND       PRES   REMARKS
CRYSTAL RIVER  FAIR      86  73  66 W8        29.92F
INVERNESS      FAIR      86  72  62 W5        29.93S
BROOKSVILLE    PTSUNNY   84  77  79 SW10      29.95S
ZEPHYRHILLS    CLOUDY    75  73  94 CALM      29.97S THUNDER
CLEARWATER     PTSUNNY   85  76  74 NW9       29.94F
TAMPA INTL     CLOUDY    85  74  69 NW10G20   29.95S
TAMPA EXEC     PTSUNNY   88  77  70 NW6       29.96S HX 100
PLANT CITY     CLOUDY    81  75  83 N10G16    29.99S
MACDILL AFB    PTSUNNY   83  79  85 NW6       29.95F
ST PETERSBURG  PTSUNNY   86  75  69 NW10      29.93S HX  95
SARASOTA       LGT RAIN  81  74  79 CALM      29.95S
VENICE         FAIR      86  75  70 NW12G18   29.97S HX  95

STATION/POSITION SKY/WX   TEMP    WIND        PRES    WAVE   SWELL
                          AIR SEA DIR/SP/G            HT/PER HT/PER
                          (F)     (DEG/KT/KT) (MB)    (FT/S) (FT/S)
CEDAR KEY                  85     300/  9/ 13 1013.6F
28.5N   84.5W              84 85  310/ 12/ 14 1013.2F   4/ 6   2/ 6
27.3N   84.3W                 86                N/A     4/ 6
CLEARWATER BEACH           85 87  290/ 10/ 11 1013.6F
MIDDLE TAMPA BAY           84     310/ 11/ 15 1014.6R
VENICE                     86 89  290/ 16/ 18 1014.3F

$$
FLZ066-069-070-075>078-162-262-165-265-300000-
SOUTHWEST FLORIDA AND KEYS

CITY           SKY/WX    TMP DP  RH WIND       PRES   REMARKS
PUNTA GORDA    MOSUNNY   86  77  74 W7        29.98S HX  97
FT MYERS       PTSUNNY   87  75  67 W12       29.97S HX  96
SOUTHWEST INTL PTSUNNY   85  75  72 N3        29.97S
NAPLES         CLOUDY    88  81  79 W10       29.98R HX 106
MARATHON       MOSUNNY   91  75  59 W7        30.01R HX 101
KEY WEST NAS   PTSUNNY   90  73  57 NW9       30.02R HX  98
KEY WEST INTL  SUNNY     89  75  63 NW10      30.02R HX  99

STATION/POSITION SKY/WX   TEMP    WIND        PRES    WAVE   SWELL
                          AIR SEA DIR/SP/G            HT/PER HT/PER
                          (F)     (DEG/KT/KT) (MB)    (FT/S) (FT/S)
VENICE                     86 89  290/ 16/ 18 1014.3F
NAPLES                     87 93              1015.8R
DRY TORTUGAS               86     290/  7/  9 1016.4S
NW FL BAY                  87     290/ 11/ 13 1015.7S
SAND KEY                   83     210/ 13/ 17 1016.6R
SOMBRERO KEY               88     290/ 11/ 12 1016.7R
LONG KEY                   87 92  300/ 11/ 12 1016.5S
MOLASSES REEF              88 87  260/ 12/ 13 1015.3F

$$
FLZ067-068-071>074-168-172>174-300000-
SOUTHEAST FLORIDA

CITY           SKY/WX    TMP DP  RH WIND       PRES   REMARKS
W PALM BEACH   CLOUDY    86  74  67 W5        29.95F
FT LAUDER-EXEC CLOUDY    82  71  69 CALM      29.96F THUNDER
FT LAUDERDALE  CLOUDY    79  72  79 CALM      29.95F
POMPANO BEACH  CLOUDY   N/A N/A N/A MISG      29.97F
PEMBROKE PINES CLOUDY    80  74  81 E3        29.97F
OPA LOCKA      CLOUDY    83  70  64 E5        29.97F
MIAMI          CLOUDY    89  70  53 N3        29.97S
WEST KENDALL   CLOUDY    88  71  57 W8        29.97R
HOMESTEAD      CLOUDY    89  71  55 W13       29.98R

STATION/POSITION SKY/WX   TEMP    WIND        PRES    WAVE   SWELL
                          AIR SEA DIR/SP/G            HT/PER HT/PER
                          (F)     (DEG/KT/KT) (MB)    (FT/S) (FT/S)
PORT EVERGLADES            79     270/  1/  3 1014.7
VIRGINIA KEY               88 89  260/  5/  7   N/A
LAKE WORTH                 82 84              1014.3R
FOWEY ROCKS                87 87  200/ 12/ 13 1015.1F
SETTLEMENT POINT           85     200/ 11/ 12 1015.5R

$$



USA.gov is the U.S. government's official web portal to all federal, state and local government web resources and services.